Location: *
(45.9500°N, 9.0833°E)
Time: 15:00:28
(UTC+00:00)

Resurs 1-3 - Pass Details

Date: 03 March 2021
Orbit: 629 x 633 km, 97.9° (Epoch: 20 April)

Event Time Altitude Azimuth Distance (km) Brightness Sun altitude
Exits shadow 19:38:45 62° 348° (NNW) 715 3.9 -25.8°
Drops below altitude 10° 19:42:27 10° 347° (NNW) 2,027 6.6 -26.4°
Sets 19:44:40 0° 347° (NNW) 2,940 7.5 -26.8°
